[[{"header":{"parameterUnit":"m.s-1","parameterCategory":1,"la1":30.2991,"la2":30.254,"lo1":-89.0895,"lo2":-89.0444,"dy":0.0017,"dx":0.0017,"nx":28,"ny":28,"refTime":"2024-05-08T09:00:00:Z","depth":0,"parameterNumber":2,"parameterNumberName":"U-component_of_WINDS"},"data":[0,0,0,0,0,0,0,0,0,0,0,0,0,0,0,0,0,0,0,0,0,0,0,0,0,0,0,0,0,0,0,0,0,0,0,0,0,0,0,0,0,0,0,0,0,0,0,0,0,0,0,0,0,0,0,0,0,0,-1.9196,-1.9196,0,-1.9189,-1.9189,-1.9189,-1.9192,-1.9192,-1.9192,-1.9193,-1.9183,-1.9183,-1.9183,0,0,0,0,0,0,0,0,0,0,0,0,0,-1.921,-1.921,-1.9196,-1.9196,-1.9196,-1.9189,-1.9189,-1.9189,-1.9192,-1.9192,-1.9192,-1.9193,-1.9184,-1.9183,-1.9183,0,0,0,0,0,0,0,0,0,0,0,0,0,-1.9203,-1.9209,-1.9196,-1.9196,-1.9196,-1.9189,-1.9189,-1.9189,-1.9192,-1.9192,-1.9193,-1.9193,-1.9184,-1.9183,-1.9182,-1.9173,0,0,-1.9181,-1.918,0,0,0,0,0,0,0,0,-1.9204,-1.9203,-1.9196,-1.9196,-1.9196,-1.9192,-1.919,-1.9183,-1.9192,-1.9194,-1.9193,-1.9193,-1.9186,-1.9185,-1.9183,-1.9173,-1.9172,-1.918,-1.918,-1.918,-1.918,0,0,0,0,0,0,0,-1.9204,-1.9203,-1.9193,-1.9196,-1.9196,-1.9197,-1.9196,-1.9189,-1.9188,-1.9193,-1.9194,-1.9193,-1.9186,-1.9184,-1.9183,-1.9172,-1.9181,-1.918,-1.918,-1.9179,-1.9154,-1.9154,0,0,0,0,0,0,-1.9205,-1.9204,-1.9193,-1.9193,-1.9201,-1.9196,-1.9195,-1.9193,-1.9188,-1.9188,-1.9193,-1.9193,-1.9185,-1.9184,-1.9183,-1.9171,-1.918,-1.9179,-1.9179,-1.9154,-1.9154,-1.9154,0,0,0,0,0,0,-1.9205,-1.9204,-1.9193,-1.9198,-1.9197,-1.9196,-1.9193,-1.9193,-1.919,-1.9188,-1.9187,-1.9191,-1.9185,-1.9183,-1.9176,-1.9171,-1.9179,-1.9178,-1.9155,-1.9154,-1.9154,-1.9149,0,0,0,0,0,0,-1.9206,-1.9204,-1.9201,-1.9198,-1.9197,-1.9187,-1.9192,-1.9192,-1.919,-1.919,-1.9186,-1.9185,-1.9185,-1.9177,-1.9175,-1.917,-1.9178,-1.9155,-1.9155,-1.9154,-1.915,-1.9149,-1.9148,0,0,0,0,0,-1.9206,-1.9199,-1.9201,-1.9199,-1.9193,-1.9187,-1.9186,-1.9186,-1.9189,-1.9186,-1.9184,-1.9186,-1.9172,-1.9176,-1.9174,-1.9169,-1.9155,-1.9155,-1.9154,-1.915,-1.9149,-1.9148,0,0,0,0,0,0,-1.9201,-1.9199,-1.92,-1.9193,-1.919,-1.9188,-1.9183,-1.9185,-1.9181,-1.9181,-1.9181,-1.918,-1.9172,-1.917,-1.9174,-1.916,-1.9164,-1.9163,-1.9162,-1.916,-1.9159,-1.916,-1.9177,0,0,0,0,0,-1.9199,-1.9195,-1.9193,-1.9186,-1.9185,-1.9184,-1.9182,-1.9182,-1.9179,-1.9178,-1.9176,-1.9172,-1.9167,-1.9164,-1.9159,-1.915,-1.9149,-1.9145,-1.9144,-1.9144,-1.9143,-1.9137,-1.9136,-1.9152,-1.9152,-1.9152,0,0,-1.9194,-1.9193,-1.919,-1.9185,-1.9183,-1.9179,-1.9183,-1.9178,-1.9175,-1.9177,-1.917,-1.9168,-1.9164,-1.9156,-1.9152,-1.9153,-1.9138,-1.9143,-1.9142,-1.9141,-1.9137,-1.9135,-1.9134,-1.9151,-1.9151,-1.9151,0,0,-1.9184,-1.9182,-1.9177,-1.9175,-1.9172,-1.9172,-1.9171,-1.9168,-1.9167,-1.916,-1.9162,-1.9157,-1.9149,-1.9146,-1.9143,-1.9133,-1.9133,-1.9131,-1.9125,-1.912,-1.9119,-1.9118,-1.9114,-1.9113,-1.913,-1.913,-1.913,0,-1.9178,-1.9172,-1.9173,-1.9168,-1.9166,-1.9169,-1.9163,-1.9161,-1.9156,-1.9154,-1.9157,-1.9147,-1.9144,-1.9135,-1.9132,-1.913,-1.9128,-1.9131,-1.9119,-1.9118,-1.9117,-1.9113,-1.9112,-1.913,-1.913,-1.913,-1.913,0,-1.9165,-1.9161,-1.9157,-1.9153,-1.9151,-1.9145,-1.9145,-1.9142,-1.9143,-1.9142,-1.9135,-1.9132,-1.9127,-1.9125,-1.9125,-1.9116,-1.9117,-1.912,-1.9124,-1.9115,-1.9112,-1.911,-1.9129,-1.9129,-1.9129,-1.9129,0,0,-1.9151,-1.9149,-1.9147,-1.9145,-1.9143,-1.9139,-1.9134,-1.913,-1.9127,-1.9124,-1.9119,-1.9112,-1.9114,-1.9111,-1.9112,-1.9107,-1.9099,-1.911,-1.911,-1.9108,-1.9088,-1.9086,-1.9084,-1.91,-1.91,-1.9099,-1.9088,0,-1.914,-1.9131,-1.9132,-1.9123,-1.9119,-1.9122,-1.9117,-1.9115,-1.9115,-1.911,-1.911,-1.9105,-1.9108,-1.9106,-1.9102,-1.9101,-1.9095,-1.9102,-1.9095,-1.9094,-1.9095,-1.9082,-1.908,-1.907,-1.9087,-1.9087,-1.9087,0,-1.9126,-1.9123,-1.9114,-1.9113,-1.9111,-1.9107,-1.9103,-1.9099,-1.9097,-1.9097,-1.9094,-1.9095,-1.9089,-1.9094,-1.9085,-1.909,-1.9087,-1.9086,-1.9086,-1.9084,-1.909,-1.9081,-1.9067,-1.9065,-1.9084,-1.9084,-1.9085,0,-1.9116,-1.911,-1.9104,-1.9102,-1.91,-1.9097,-1.9096,-1.9094,-1.9092,-1.9088,-1.9086,-1.9082,-1.908,-1.9076,-1.9076,-1.908,-1.9068,-1.9072,-1.9067,-1.9067,-1.9063,-1.9063,-1.9048,-1.9063,-1.9063,-1.9063,-1.9063,0,-1.9103,-1.9097,-1.9099,-1.9095,-1.9089,-1.909,-1.9084,-1.9083,-1.9081,-1.9077,-1.9079,-1.9075,-1.9075,-1.9071,-1.9071,-1.9064,-1.9063,-1.9062,-1.9062,-1.9061,-1.9061,-1.9059,-1.906,-1.9062,-1.9062,-1.9062,-1.9062,0,-1.909,-1.9091,-1.9085,-1.9084,-1.9084,-1.9079,-1.9078,-1.9074,-1.9074,-1.9068,-1.9067,-1.9067,-1.9062,-1.9062,-1.9056,-1.9056,-1.9047,-1.9048,-1.9048,-1.9048,-1.9042,-1.9043,-1.9025,-1.9022,-1.9038,-1.9038,-1.9038,0,-1.9082,-1.9078,-1.9077,-1.9074,-1.9073,-1.9069,-1.9067,-1.9069,-1.9066,-1.9063,-1.9059,-1.9055,-1.9051,-1.9043,-1.9042,-1.9038,-1.9038,-1.9032,-1.9037,-1.9037,-1.9037,-1.9038,-1.9037,-1.9031,-1.9031,-1.903,-1.903,0,-1.9067,-1.9068,-1.9065,-1.9062,-1.9059,-1.9057,-1.9055,-1.9053,-1.9054,-1.9051,-1.9046,-1.9043,-1.9038,-1.9033,-1.9029,-1.9027,-1.9029,-1.9029,-1.9027,-1.9027,-1.9027,-1.9026,-1.9045,-1.9029,-1.9029,-1.9029,-1.9029,-1.9029,-1.9056,-1.9053,-1.9051,-1.9048,-1.9046,-1.9044,-1.9041,-1.9041,-1.9037,-1.9033,-1.9034,-1.9029,-1.9027,-1.9021,-1.9019,-1.9015,-1.9017,-1.9015,-1.9014,-1.9013,-1.9013,-1.9028,-1.9014,-1.9014,-1.9014,-1.9014,-1.9014,0,-1.9041,-1.9041,-1.9037,-1.9035,-1.9032,-1.9035,-1.9032,-1.903,-1.9025,-1.9023,-1.902,-1.9015,-1.901,-1.9009,-1.9005,-1.9002,-1.9002,-1.9,-1.9,-1.9,-1.9011,-1.9013,-1.9,-1.9,-1.9,-1.9,-1.9,-1.9,-1.9033,-1.9027,-1.9028,-1.9021,-1.9021,-1.9016,-1.9015,-1.9013,-1.9011,-1.9005,-1.9002,-1.9002,-1.9,-1.8996,-1.8992,-1.8991,-1.8989,-1.8987,-1.8987,-1.8998,-1.8999,-1.9,-1.9002,-1.8987,-1.8987,-1.8976,-1.8976,-1.8976]},{"header":{"parameterUnit":"m.s-1","parameterCategory":1,"la1":30.2991,"la2":30.254,"lo1":-89.0895,"lo2":-89.0444,"dy":0.0017,"dx":0.0017,"nx":28,"ny":28,"refTime":"2024-05-08T09:00:00:Z","depth":0,"parameterNumber":3,"parameterNumberName":"V-component_of_WINDS"},"data":[0,0,0,0,0,0,0,0,0,0,0,0,0,0,0,0,0,0,0,0,0,0,0,0,0,0,0,0,0,0,0,0,0,0,0,0,0,0,0,0,0,0,0,0,0,0,0,0,0,0,0,0,0,0,0,0,0,0,6.3345,6.3346,0,6.3404,6.3404,6.3405,6.3343,6.334,6.3338,6.3336,6.3392,6.3396,6.3399,0,0,0,0,0,0,0,0,0,0,0,0,0,6.3176,6.3179,6.3345,6.3346,6.3346,6.3404,6.3404,6.3405,6.3343,6.334,6.3337,6.3334,6.3391,6.3395,6.34,0,0,0,0,0,0,0,0,0,0,0,0,0,6.3243,6.318,6.3345,6.3322,6.3321,6.3403,6.3404,6.3405,6.3344,6.334,6.3336,6.3333,6.3389,6.3395,6.34,6.3507,0,0,6.3417,6.342,0,0,0,0,0,0,0,0,6.3239,6.3249,6.3325,6.3324,6.3323,6.3362,6.3365,6.3439,6.3345,6.3335,6.3336,6.3331,6.3385,6.3391,6.3409,6.3509,6.3512,6.3418,6.3421,6.3424,6.3425,0,0,0,0,0,0,0,6.3235,6.3247,6.3368,6.3326,6.3325,6.3308,6.3314,6.3379,6.3379,6.3335,6.3331,6.3339,6.3383,6.3404,6.341,6.3513,6.3418,6.3423,6.3426,6.3428,6.3702,6.3706,0,0,0,0,0,0,6.3233,6.3243,6.3366,6.337,6.3272,6.3314,6.3321,6.3353,6.3378,6.3379,6.3342,6.3336,6.3396,6.3404,6.3412,6.3537,6.3424,6.3429,6.3432,6.3698,6.3703,6.3707,0,0,0,0,0,0,6.323,6.3245,6.3364,6.3305,6.3319,6.3321,6.3358,6.3356,6.3377,6.3383,6.3383,6.3363,6.3394,6.3404,6.3484,6.3539,6.3431,6.3437,6.3694,6.37,6.3705,6.379,0,0,0,0,0,0,6.3225,6.3244,6.3285,6.3307,6.3323,6.3436,6.3361,6.336,6.3387,6.338,6.3403,6.3404,6.3392,6.3476,6.3489,6.3544,6.3441,6.3689,6.3696,6.3703,6.3782,6.3798,6.3811,0,0,0,0,0,6.3219,6.3306,6.3287,6.3303,6.3374,6.3439,6.3448,6.3434,6.3392,6.3432,6.3437,6.3403,6.3531,6.3484,6.3499,6.3557,6.3685,6.3694,6.3703,6.3776,6.3795,6.3811,0,0,0,0,0,0,6.3289,6.3308,6.3288,6.3385,6.3411,6.3429,6.3479,6.3455,6.3492,6.3484,6.3463,6.3469,6.3554,6.3563,6.3511,6.3661,6.3601,6.3613,6.3651,6.367,6.3684,6.3679,6.3446,0,0,0,0,0,6.3316,6.3368,6.3382,6.3465,6.348,6.3478,6.3505,6.3492,6.3518,6.3529,6.3539,6.3564,6.361,6.364,6.3683,6.3784,6.3787,6.383,6.3845,6.3857,6.3867,6.3921,6.394,6.3736,6.3736,6.3736,0,0,6.3371,6.3388,6.3422,6.348,6.3499,6.3552,6.3487,6.3547,6.3586,6.3537,6.3613,6.3622,6.3649,6.3739,6.378,6.375,6.3925,6.3868,6.3878,6.3882,6.3932,6.3951,6.3968,6.3742,6.3741,6.374,0,0,6.35,6.3519,6.359,6.3611,6.3641,6.3639,6.3656,6.3678,6.3682,6.3758,6.3723,6.3769,6.3848,6.3869,6.389,6.4027,6.3997,6.4041,6.4117,6.4169,6.4185,6.4199,6.4247,6.4265,6.4052,6.4052,6.4052,0,6.3564,6.3645,6.363,6.3692,6.3718,6.3678,6.375,6.377,6.3812,6.383,6.3796,6.3896,6.3911,6.4006,6.4039,6.4058,6.4076,6.4038,6.4184,6.4198,6.4211,6.4257,6.4275,6.4057,6.4057,6.4056,6.4056,0,6.3722,6.3779,6.3833,6.3876,6.3908,6.3974,6.3968,6.4002,6.3987,6.3988,6.4066,6.4083,6.4129,6.415,6.4135,6.4243,6.4223,6.4188,6.4127,6.4236,6.4278,6.4296,6.4065,6.4063,6.4061,6.406,0,0,6.3895,6.393,6.395,6.3969,6.3999,6.4042,6.4106,6.4152,6.4181,6.4211,6.4264,6.4333,6.43,6.4324,6.4311,6.4357,6.4463,6.4315,6.4315,6.4341,6.4582,6.4608,6.4628,6.4444,6.4447,6.445,6.4579,0,6.4023,6.4137,6.4125,6.4232,6.4283,6.4247,6.4303,6.4327,6.433,6.4373,6.4376,6.4425,6.4379,6.4393,6.4437,6.4441,6.4511,6.4432,6.4491,6.4494,6.4485,6.4651,6.4678,6.4799,6.4596,6.4599,6.4601,0,6.4188,6.4225,6.4338,6.4361,6.4382,6.4433,6.4474,6.4516,6.4542,6.4541,6.4569,6.4547,6.4611,6.455,6.4637,6.4583,6.4607,6.4613,6.4617,6.4621,6.4553,6.4658,6.4838,6.4856,6.4627,6.4625,6.4623,0,6.4301,6.438,6.4458,6.4475,6.4504,6.454,6.4554,6.4577,6.4605,6.464,6.4658,6.47,6.4723,6.4755,6.4746,6.4703,6.4835,6.4773,6.4834,6.4835,6.4863,6.4861,6.5048,6.488,6.488,6.488,6.4879,0,6.4445,6.4515,6.4509,6.4557,6.4634,6.462,6.4696,6.4705,6.4726,6.4774,6.4744,6.4789,6.4775,6.4819,6.4812,6.4884,6.4895,6.4895,6.4892,6.4897,6.4897,6.4911,6.4902,6.4884,6.4883,6.4882,6.4882,0,6.4584,6.4583,6.4665,6.4686,6.4693,6.4749,6.4766,6.4811,6.4812,6.4873,6.4886,6.4888,6.4938,6.4933,6.4989,6.4984,6.5073,6.5061,6.5065,6.5062,6.5123,6.5117,6.5325,6.5351,6.5168,6.517,6.5171,0,6.4675,6.4729,6.4756,6.4787,6.4803,6.4853,6.4881,6.487,6.4901,6.4935,6.4975,6.5023,6.5061,6.5143,6.5148,6.5191,6.5179,6.5249,6.5185,6.5188,6.5178,6.5175,6.518,6.5261,6.5263,6.5264,6.5266,0,6.4837,6.4834,6.4878,6.4922,6.4957,6.4991,6.5021,6.5048,6.5039,6.5075,6.5127,6.5156,6.5214,6.5262,6.5302,6.5314,6.5289,6.5286,6.5302,6.5307,6.5307,6.5307,6.5098,6.5281,6.528,6.5278,6.5278,6.5277,6.4954,6.5,6.5027,6.5076,6.5098,6.5127,6.517,6.5177,6.5221,6.5268,6.5258,6.5316,6.5341,6.5393,6.5409,6.5454,6.5428,6.5452,6.5458,6.5463,6.547,6.5302,6.5461,6.5461,6.546,6.546,6.546,0,6.5114,6.5129,6.5175,6.5219,6.5258,6.5232,6.5264,6.5298,6.535,6.5376,6.5414,6.5474,6.552,6.553,6.5573,6.5607,6.5596,6.5619,6.5616,6.5619,6.5491,6.5472,6.5627,6.5627,6.5627,6.5627,6.5627,6.5627,6.5201,6.5277,6.5277,6.5363,6.5377,6.5436,6.5456,6.5482,6.5503,6.5571,6.561,6.5617,6.5636,6.5681,6.5722,6.5723,6.574,6.5768,6.5764,6.5645,6.5628,6.5612,6.5594,6.5772,6.5772,6.5888,6.5889,6.589]}]]